RH
84 76 98 98 99 96 100 98 98 99 72 69 67 65 61 62 63 62 66 66 71 87 95 95 97 97 92 86 92 84 77 81 75 70 78 82 89 97 85 76 86 91 91
70 84 97 95 99 96 99 92 96 91 77 75 72 68 64 61 62 66 69 71 85 94 95 96 96 97 94 85 86 78 77 77 75 75 83 81 92 98 77 82 83 90 90
65 88 98 98 98 97 98 91 92 88 78 75 76 71 67 65 68 72 74 84 94 95 95 94 94 96 94 86 79 78 77 77 75 75 77 83 93 91 82 76 83 88 92
62 82 98 98 97 98 100 87 91 90 80 78 86 92 95 91 86 81 87 87 92 94 90 93 89 89 87 86 80 82 79 77 76 76 78 82 84 91 84 81 86 93 95
69 80 96 97 96 97 98 90 93 94 86 90 92 92 96 95 96 89 85 88 86 87 86 85 85 86 82 83 81 85 84 82 77 77 81 81 85 94 92 92 91 93 93
69 74 86 98 98 99 97 96 94 88 91 85 90 89 87 94 95 88 82 82 85 84 82 84 84 83 82 84 83 85 86 85 83 84 87 83 81 93 95 92 90 92 94
56 66 80 98 96 91 93 97 93 82 89 85 88 86 82 84 90 87 77 80 81 81 82 80 81 80 80 80 83 84 84 87 87 91 83 81 79 94 96 95 92 91 98
74 81 90 94 95 90 89 91 87 89 90 87 87 85 84 85 84 86 79 79 80 80 82 81 80 80 78 81 82 81 84 88 89 90 81 80 78 98 99 98 93 93 90
72 79 90 95 95 88 85 88 86 87 88 87 87 86 86 90 81 80 78 78 76 79 80 78 77 80 73 78 82 81 86 88 84 82 79 81 79 98 100 96 96 92 92
91 88 91 93 90 88 84 83 86 88 88 88 90 89 87 85 86 80 82 78 72 66 77 76 76 77 71 81 80 82 86 86 80 79 77 80 79 97 96 96 97 91 90
99 100 97 93 92 88 85 82 86 83 82 85 88 92 92 91 90 87 88 82 76 67 68 70 74 77 78 76 81 89 83 78 81 79 75 78 73 94 97 96 93 98 99
85 98 100 100 96 88 83 84 83 84 84 82 83 93 93 90 90 91 89 90 86 77 74 72 73 82 83 75 75 83 78 75 78 84 76 77 76 94 98 96 100 97 95
79 92 100 100 100 98 85 85 85 87 85 84 88 94 94 90 88 89 92 95 92 86 76 78 89 92 89 83 83 87 85 76 80 78 76 83 86 90 100 94 96 98 95
82 91 98 99 100 100 100 90 88 89 88 87 91 97 96 91 90 89 89 92 95 97 92 84 92 98 99 100 98 90 85 73 85 82 88 86 80 85 97 98 97 95 97
82 94 96 99 100 100 100 99 90 88 88 88 94 95 96 95 92 91 88 85 86 93 97 95 100 100 100 98 100 92 86 86 80 84 100 94 83 96 91 96 90 94 97
85 94 96 98 100 100 100 100 97 83 79 87 92 95 97 94 85 84 87 97 98 100 96 97 100 100 100 100 100 100 100 97 95 96 100 98 100 98 94 98 99 100 100
87 96 97 99 99 100 100 100 100 94 84 84 81 82 88 80 85 92 95 97 100 99 100 100 100 100 100 100 100 100 100 100 93 98 100 100 100 100 100 100 98 100 100
83 94 97 96 95 99 100 100 100 100 87 79 80 76 79 84 90 93 96 95 96 100 100 99 100 100 100 100 100 100 100 100 100 100 99 99 100 99 100 100 99 99 100
80 88 96 97 95 97 98 100 100 100 95 85 79 75 78 81 88 95 98 99 100 100 100 99 100 96 99 100 100 100 100 99 100 100 100 100 99 100 100 100 99 96 95
82 86 91 97 93 95 100 99 100 99 100 92 82 76 75 82 91 99 100 100 100 100 99 100 99 100 100 99 100 100 100 100 100 100 99 100 100 97 98 95 93 91 91
89 90 93 100 95 100 100 100 99 100 99 100 88 80 77 86 94 99 100 100 100 99 99 99 100 98 100 99 95 100 100 100 100 100 99 100 99 95 90 86 89 92 94
97 99 99 100 100 100 100 100 100 100 96 100 100 92 82 86 99 100 100 100 100 100 100 100 98 99 100 99 95 91 99 98 98 100 98 97 95 93 92 90 89 90 92
96 97 98 98 97 100 100 100 100 99 99 100 100 100 98 92 99 100 100 100 100 100 100 100 97 97 97 98 94 90 98 98 91 93 98 94 90 88 89 87 86 87 86
97 97 97 98 97 97 94 99 100 100 100 100 100 96 100 100 98 100 100 99 100 100 99 99 99 93 92 98 98 91 84 80 94 95 84 98 96 90 87 85 86 84 82
94 98 97 97 97 97 95 99 100 100 100 100 99 99 100 100 100 100 100 100 100 99 100 99 99 96 93 95 92 96 95 89 90 88 98 89 96 98 96 90 87 86 84
88 95 98 98 97 96 95 94 100 100 100 100 96 100 100 100 100 100 100 100 100 99 99 100 99 97 95 97 93 97 91 89 97 90 93 96 93 90 93 96 93 90 86
Wind_Speed
17 22 23 22 21 20 20 20 20 19 18 16 16 15 14 13 12 11 11 11 12 12 11 11 10 10 10 8 10 8 11 11 11 12 11 11 14 16 17 19 20 22 22
17 24 24 22 21 21 20 21 20 18 18 17 16 15 14 13 12 11 11 11 12 12 11 10 10 10 9 8 9 11 11 10 10 11 14 13 16 18 19 20 18 21 23
17 26 25 23 22 21 21 22 21 18 18 17 15 15 14 13 12 11 11 10 10 11 11 10 10 10 10 10 10 11 11 10 11 11 13 15 18 19 19 20 19 21 22
21 26 25 24 23 22 22 22 22 19 18 16 15 14 14 13 12 11 10 10 11 11 11 11 11 10 10 10 11 11 11 11 13 13 14 15 18 19 19 20 20 21 22
22 25 25 24 23 22 22 21 22 20 18 16 15 14 13 13 12 12 11 11 11 11 12 12 13 12 12 9 9 10 12 14 15 16 17 19 20 19 20 20 20 22 23
22 24 24 22 21 21 22 20 22 23 20 18 16 15 14 12 12 12 12 13 13 12 13 14 13 13 13 12 11 12 13 16 18 19 21 21 21 20 20 20 22 23 24
22 23 25 22 20 19 19 20 20 21 20 18 17 16 14 13 12 12 13 13 13 12 13 13 14 14 13 11 11 12 15 18 19 22 23 22 21 21 20 22 24 25 25
18 20 23 21 20 19 19 19 20 20 20 17 17 16 14 13 13 13 14 13 13 13 14 14 14 14 13 12 11 14 17 19 20 22 23 23 22 22 23 25 27 27 28
12 16 20 20 16 17 17 17 19 19 17 17 17 16 15 14 14 14 14 14 13 14 14 14 15 17 15 13 15 17 19 20 19 23 22 23 23 23 24 27 28 30 30
6 12 16 16 14 16 14 17 17 17 17 17 17 16 15 15 15 15 15 15 15 13 13 15 17 18 17 17 18 20 22 20 19 22 22 23 23 24 27 31 33 33 32
20 10 13 17 17 19 17 18 17 17 16 16 16 16 16 15 15 16 16 15 16 15 14 15 17 17 20 20 20 20 19 19 21 24 22 23 23 26 30 33 35 34 35
38 26 20 7 13 19 19 19 18 18 16 15 18 17 17 17 17 17 17 16 15 15 14 15 17 20 24 22 22 19 17 18 21 24 24 25 24 26 34 35 36 37 34
34 33 26 21 11 15 22 22 22 20 20 18 18 18 18 17 18 18 18 18 18 16 15 13 17 24 24 22 22 19 16 19 20 21 26 27 24 22 40 41 38 35 34
38 39 33 27 21 12 19 24 24 23 21 20 21 19 19 18 18 17 18 19 20 19 17 17 22 24 23 22 22 20 18 18 21 21 26 33 25 10 26 31 30 27 28
39 43 41 33 25 21 11 23 25 24 22 20 21 20 19 18 17 16 16 18 20 21 21 22 25 24 23 23 20 21 17 18 22 24 32 33 31 31 28 31 30 28 27
39 41 43 38 29 24 16 9 25 27 23 21 19 18 18 18 17 15 16 15 18 22 25 25 27 26 24 26 23 21 22 22 19 21 32 37 39 37 35 32 31 30 29
36 39 42 40 34 27 21 16 11 27 24 22 19 19 18 17 17 16 15 14 16 23 27 27 31 30 30 31 29 28 29 28 29 29 38 46 41 36 32 31 32 29 28
35 39 40 40 36 30 23 18 11 21 25 23 23 20 19 18 18 17 16 16 18 25 30 31 33 30 31 34 32 28 36 35 36 37 43 43 37 33 29 29 30 29 26
35 37 40 41 40 36 28 21 12 16 27 27 25 22 21 21 19 18 17 17 22 27 32 33 33 37 36 35 34 34 35 33 37 39 37 40 40 35 31 28 29 28 26
35 36 38 39 40 39 35 24 7 11 23 28 26 24 22 23 20 19 19 20 25 29 32 33 34 36 39 40 34 38 34 32 37 34 38 37 38 36 34 32 30 26 25
36 38 39 39 42 40 39 36 19 10 10 17 24 22 21 22 21 21 23 27 31 37 39 39 39 46 37 44 33 36 33 32 34 34 33 33 35 33 31 30 29 27 24
36 38 38 37 38 37 36 33 23 28 17 14 16 21 22 22 22 23 27 29 32 33 38 43 44 31 33 27 21 24 4 12 26 27 31 29 33 32 31 29 28 26 24
35 38 37 36 37 37 36 35 33 16 11 7 7 17 23 24 24 25 29 31 34 38 39 40 46 46 28 22 29 10 4 3 7 15 22 25 28 27 28 28 27 24 23
33 35 36 35 34 35 38 37 31 21 17 15 20 14 22 27 27 26 29 33 37 37 40 38 38 36 38 33 15 19 11 31 4 3 12 18 24 23 23 24 24 23 22
31 33 36 37 37 38 40 31 30 27 25 23 17 17 19 28 30 28 31 33 37 35 38 40 38 28 33 35 23 25 31 24 15 9 4 5 16 17 20 22 22 21 21
31 33 35 36 36 40 38 39 34 33 34 29 22 20 5 20 28 33 33 32 35 38 35 37 36 33 31 25 26 29 36 19 19 18 5 6 9 9 13 15 18 18 17
Wind_Direction
193 170 173 173 173 171 167 163 157 161 161 161 158 156 156 157 156 159 158 156 162 164 168 169 167 167 172 169 177 172 169 171 173 175 187 160 145 139 141 145 141 136 132
181 174 173 176 177 174 172 167 164 166 164 164 161 161 165 167 169 167 165 164 163 164 169 169 170 174 179 174 169 174 170 168 169 163 170 163 153 146 147 145 146 141 136
175 168 174 178 179 178 176 172 166 173 168 166 164 165 170 172 175 174 171 170 172 171 175 178 178 185 188 188 179 177 182 174 175 171 171 166 158 153 150 149 151 145 141
173 173 176 181 181 181 177 178 169 174 173 169 170 172 173 177 177 176 177 179 183 184 183 187 186 192 195 197 193 188 190 183 173 170 171 169 160 155 152 154 150 146 144
178 181 180 181 182 182 180 182 175 178 180 175 176 177 180 183 181 183 183 191 194 192 188 195 198 196 195 197 198 192 195 188 177 173 171 164 159 156 154 155 153 150 146
182 186 185 183 184 184 183 183 185 181 188 182 182 185 185 186 188 189 195 203 202 199 201 200 201 199 199 199 193 187 184 179 177 172 170 165 165 159 159 158 154 149 143
187 189 188 184 185 189 187 191 190 188 194 191 189 191 191 190 192 198 201 207 209 202 203 203 204 203 203 199 189 183 174 176 174 173 171 169 165 162 160 158 153 148 142
193 190 190 187 188 190 194 196 197 197 198 196 196 197 195 193 192 197 197 199 206 205 204 201 205 201 199 194 187 180 176 173 173 177 174 170 171 159 158 155 152 148 142
205 196 194 194 198 196 199 199 201 204 204 203 203 202 201 199 200 201 197 198 201 204 206 203 204 202 200 195 185 182 180 177 177 178 178 175 173 161 156 152 145 140 137
213 204 198 190 207 206 201 199 205 209 209 211 210 209 209 208 209 210 207 203 201 195 199 201 205 202 201 198 190 185 187 187 189 186 181 176 176 163 157 148 140 136 131
17 350 213 205 200 203 207 203 206 211 215 222 219 213 214 211 211 211 212 210 207 209 210 209 210 203 202 200 194 189 194 194 189 187 186 181 182 170 160 147 138 131 126
357 356 3 313 229 211 215 210 207 210 212 220 224 217 219 216 217 214 215 214 213 210 216 216 217 210 207 204 198 197 202 207 198 195 189 188 188 177 157 143 136 132 128
349 350 357 348 310 250 218 219 219 214 216 220 227 223 223 220 221 216 218 217 217 210 213 207 202 207 205 199 199 194 200 203 198 200 196 181 166 202 144 137 136 135 134
352 349 348 353 350 306 253 221 222 223 223 224 225 226 225 224 223 222 223 221 219 218 213 208 203 197 195 192 194 190 200 197 185 190 183 174 178 134 121 131 133 133 135
354 349 347 345 349 341 309 243 223 228 232 230 226 225 224 227 226 231 232 234 224 213 210 203 200 195 188 179 190 185 182 189 179 171 164 168 158 160 149 142 145 144 135
351 349 346 344 343 340 331 301 243 221 223 227 224 223 217 225 232 243 246 245 230 208 207 203 199 194 175 175 168 174 171 168 158 157 154 150 144 144 145 137 133 131 131
350 346 349 345 344 343 335 320 259 227 214 209 213 223 220 227 232 246 243 222 209 205 201 190 181 172 162 153 144 148 150 138 124 112 118 127 130 131 133 132 130 129 129
353 350 348 350 348 344 338 318 283 229 213 208 207 216 224 233 244 243 232 218 213 200 191 180 165 143 132 135 130 123 135 130 127 118 118 126 128 127 124 129 130 127 125
354 352 350 352 351 349 341 328 285 233 221 211 209 215 231 236 246 233 226 219 210 191 172 157 145 158 129 122 120 120 118 115 122 124 123 125 127 125 124 124 124 124 124
355 356 355 353 354 350 345 343 332 222 229 219 211 212 232 242 237 225 217 210 189 164 157 146 144 136 135 124 109 107 108 110 117 118 118 124 125 127 128 127 122 123 127
356 357 356 352 354 350 349 350 339 333 296 237 208 211 231 228 227 216 209 190 176 163 155 150 142 139 121 126 102 85 81 101 107 110 118 117 123 128 131 128 125 125 125
353 354 353 352 351 350 347 339 326 310 287 265 237 216 215 222 218 212 203 184 176 161 157 158 151 131 132 138 128 116 82 72 88 106 119 124 126 131 132 131 132 133 130
353 351 349 349 350 352 346 344 348 351 335 312 263 223 216 216 213 210 199 184 179 170 163 159 155 148 149 140 143 143 133 118 115 75 108 121 125 130 131 134 135 135 135
350 348 349 349 349 350 2 350 343 341 330 319 316 273 240 216 209 208 200 193 184 174 170 167 162 157 155 156 143 144 137 148 133 131 86 106 122 125 128 131 139 146 148
349 347 349 350 354 352 2 342 349 340 330 323 336 315 243 222 211 204 194 198 191 180 176 175 169 172 168 162 153 139 130 136 128 134 120 80 119 125 134 138 142 144 146
349 351 351 349 349 356 354 0 341 346 334 332 355 335 326 222 213 206 200 197 196 194 183 178 175 175 170 175 159 152 157 160 157 150 135 137 132 128 142 152 158 156 156